Location: Kellogg
(38.0159°N, 90.0546°W)
Time: 01:54:53
(UTC+00:00)

SR - Pass Details

Date: 12 September 2024
Orbit: 577 x 855 km, 66.7° (Epoch: 10 October)

Event Time Altitude Azimuth Distance (km) Brightness Sun altitude
Rises 19:13:20 0° 197° (SSW) 2,843 ? 51.5°
Reaches altitude 10° 19:15:38 10° 193° (SSW) 1,919 ? 51.2°
Maximum altitude 19:19:49 57° 115° (ESE) 687 ? 50.8°
Drops below altitude 10° 19:23:57 10° 37° (NE) 1,893 ? 50.3°
Sets 19:26:12 0° 33° (NNE) 2,802 ? 50.1°
